Pullman, WA

4:33 PM PST on January 17, 2018 (GMT -0800)
Pullman-Moscow Regional

Weather History for KPUW - October, 2013

Change the Weather History Date:

Tuesday, October 1, 2013

  Actual Average Record
Temperature  
Mean Temperature 47 °F 53 °F  
Max Temperature 56 °F 67 °F 90 °F (1992)
Min Temperature 38 °F 39 °F 24 °F (1999)
Degree Days  
Heating Degree Days 18 12  
Month to date heating degree days 18 12  
Since 1 July heating degree days 237 373  
Cooling Degree Days 0 0  
Month to date cooling degree days 0 0  
Year to date cooling degree days 334 212  
Moisture  
Dew Point 37 °F    
Average Humidity 68    
Maximum Humidity 85    
Minimum Humidity 50    
Precipitation  
Precipitation T in 0.03 in 0.50 in (1951)
Month to date precipitation T 0.03  
Year to date precipitation 11.54 11.72  
Sea Level Pressure  
Sea Level Pressure 30.06 in    
Wind  
Wind Speed 8 mph (WSW)    
Max Wind Speed 22 mph    
Max Gust Speed 26 mph    
Visibility 10 miles    
Events      
T = Trace of Precipitation, MM = Missing Value Source: NWS Daily Summary

Daily Weather History Graph

Daily Weather History Graph

Search for Another Location

Airport or City:

Trip Planner

Search our weather history database for the weather conditions in past years. The results will help you decide how hot, cold, wet, or windy it might be!

Date:

Astronomy

Oct. 01, 2013 Rise Set
Actual Time 6:47 AM PDT 6:27 PM PDT
Civil Twilight 6:17 AM PDT 6:57 PM PDT
Nautical Twilight 5:42 AM PDT 7:32 PM PDT
Astronomical Twilight 5:06 AM PDT 8:08 PM PDT
Moon 3:15 AM PDT (10/1) 4:42 PM PDT (10/1)
Length of Visible Light 12h 40m
Length of Day
11h 39m
Waning Crescent, 11% of the Moon is Illuminated
Oct 1
Waning Crescent
Oct 4
New
Oct 11
First Quarter
Oct 18
Full
Oct 26
Last Quarter

Hourly Weather History & Observations

Time (PDT) Temp. Windchill Dew Point Humidity Pressure Visibility Wind Dir Wind Speed Gust Speed Precip Events Conditions
12:53 AM 46.9 °F - 37.9 °F 71% 29.98 in 10.0 mi SW 13.8 mph 21.9 mph 0.00 in   Mostly Cloudy
1:53 AM 46.9 °F - 37.9 °F 71% 29.99 in 10.0 mi WSW 17.3 mph - N/A   Mostly Cloudy
2:53 AM 45.0 °F 39.3 °F 37.0 °F 74% 29.99 in 10.0 mi West 11.5 mph - N/A   Partly Cloudy
3:53 AM 45.0 °F 40.6 °F 37.9 °F 76% 29.99 in 10.0 mi West 8.1 mph - N/A   Scattered Clouds
4:53 AM 44.1 °F 40.8 °F 37.0 °F 76% 30.00 in 10.0 mi WSW 5.8 mph - N/A   Scattered Clouds
5:53 AM 39.0 °F 34.8 °F 35.1 °F 86% 30.02 in 10.0 mi NE 5.8 mph - N/A   Clear
6:53 AM 39.0 °F - 34.0 °F 82% 30.02 in 10.0 mi Calm Calm - N/A   Mostly Cloudy
7:53 AM 43.0 °F - 37.0 °F 80% 30.02 in 10.0 mi Calm Calm - N/A   Overcast
8:53 AM 46.9 °F - 37.9 °F 71% 30.03 in 10.0 mi Calm Calm - 0.00 in   Overcast
9:53 AM 50.0 °F - 37.9 °F 63% 30.03 in 10.0 mi Calm Calm - N/A   Mostly Cloudy
10:53 AM 53.1 °F - 36.0 °F 52% 30.02 in 10.0 mi SW 13.8 mph 21.9 mph N/A   Mostly Cloudy
11:53 AM 55.0 °F - 37.9 °F 53% 30.02 in 10.0 mi WSW 10.4 mph 23.0 mph N/A   Overcast
12:53 PM 55.0 °F - 37.9 °F 53% 30.01 in 10.0 mi West 13.8 mph 20.7 mph N/A   Mostly Cloudy
1:53 PM 54.0 °F - 37.9 °F 55% 30.02 in 10.0 mi WSW 15.0 mph 21.9 mph N/A   Scattered Clouds
2:53 PM 53.1 °F - 36.0 °F 52% 30.03 in 10.0 mi West 17.3 mph 24.2 mph N/A   Partly Cloudy
3:53 PM 52.0 °F - 37.9 °F 59% 30.04 in 10.0 mi West 16.1 mph 20.7 mph N/A   Mostly Cloudy
4:53 PM 48.0 °F - 37.9 °F 68% 30.07 in 10.0 mi WSW 16.1 mph 25.3 mph 0.00 in   Overcast
5:53 PM 45.0 °F 40.6 °F 39.0 °F 80% 30.09 in 10.0 mi SW 8.1 mph - N/A   Overcast
6:53 PM 44.1 °F 40.1 °F 37.9 °F 79% 30.12 in 10.0 mi WSW 6.9 mph - N/A   Partly Cloudy
7:53 PM 43.0 °F 37.7 °F 37.0 °F 80% 30.15 in 10.0 mi WSW 9.2 mph - N/A   Clear
8:53 PM 43.0 °F 38.8 °F 36.0 °F 76% 30.16 in 10.0 mi WSW 6.9 mph - N/A   Clear
9:11 PM 42.8 °F 38.6 °F 35.6 °F 76% 30.14 in 10.0 mi SW 6.9 mph - N/A   Mostly Cloudy
9:27 PM 42.8 °F 37.5 °F 35.6 °F 76% 30.14 in 10.0 mi SW 9.2 mph - N/A   Scattered Clouds
9:53 PM 41.0 °F 35.2 °F 36.0 °F 82% 30.17 in 10.0 mi SW 9.2 mph - N/A   Clear
10:53 PM 39.0 °F 34.0 °F 34.0 °F 82% 30.19 in 10.0 mi South 6.9 mph - N/A   Clear
11:53 PM 37.9 °F - 34.0 °F 86% 30.20 in 10.0 mi Calm Calm - N/A   Clear